RH
20 18 17 16 14 15 16 16 18 18 17 17 15 14 15 14 17 22 19 15 15 14 13 15 24 37 37 31 34 38 41 47 46 41 38 36 41 47 48 43 38 41 43 42 46 45 41 42 40 39 41 42 44 44 42 41 40 40 41 43 43 43 45 48 50 50 47 44 47 50 50 48 47 49 50 52 55 57 63 68 73 79 85 82 75 74
21 19 17 16 16 18 20 20 19 19 18 19 16 14 16 16 18 23 21 16 15 14 14 17 26 37 39 35 32 34 44 51 46 43 42 42 44 45 44 43 42 45 43 41 45 45 43 42 38 37 40 42 43 43 42 42 41 41 41 41 41 42 43 45 45 44 43 43 45 47 48 46 47 50 51 52 53 56 64 68 71 76 77 76 74 75
22 20 17 16 18 20 22 21 21 20 20 20 17 14 16 16 19 23 19 16 15 15 19 23 32 41 40 38 37 38 42 41 38 40 44 50 53 47 43 43 43 46 46 44 46 45 41 40 37 37 39 41 41 42 43 43 42 43 43 42 41 42 43 43 43 43 44 44 43 44 45 45 46 47 48 48 48 52 57 60 67 74 72 72 76 78
22 20 17 19 20 20 22 22 23 23 22 22 16 14 17 16 19 22 18 16 14 17 26 28 36 45 44 44 45 46 39 28 27 31 36 48 54 48 43 43 44 46 46 46 45 42 38 38 37 37 38 39 40 41 41 42 42 42 42 42 41 41 42 43 44 45 46 45 45 45 45 45 45 46 46 46 45 47 49 50 59 67 67 70 77 79
21 19 17 20 21 19 22 22 23 26 25 23 16 14 18 16 20 23 19 17 15 19 26 29 37 44 42 44 48 48 37 25 24 24 26 33 38 41 41 42 45 47 48 46 42 39 38 38 37 37 37 38 40 41 41 41 41 41 40 41 40 40 42 44 45 45 44 44 46 47 47 46 46 47 46 45 45 45 46 47 51 56 59 66 73 78
23 20 17 19 21 21 24 22 22 27 25 21 16 15 19 19 24 26 19 17 17 19 22 27 38 42 37 39 46 48 41 35 31 26 25 27 28 32 37 42 45 47 49 46 42 39 39 38 39 39 38 39 41 41 41 41 41 41 40 40 41 41 43 44 45 44 44 46 47 48 48 48 49 49 48 47 47 45 44 45 47 52 57 60 66 74
25 22 18 19 20 20 23 22 23 28 23 18 15 15 19 22 27 29 24 19 17 18 21 24 31 39 40 40 47 50 47 45 39 30 29 30 31 36 42 46 46 47 48 46 43 41 39 40 40 40 40 41 42 41 41 41 41 41 41 40 41 42 44 45 45 45 46 48 47 47 47 48 49 50 50 49 48 46 44 44 45 48 53 57 63 70
26 23 20 19 19 19 22 24 25 25 20 17 16 14 19 24 28 33 31 25 20 21 26 27 25 35 46 46 47 50 50 50 43 34 35 38 38 42 45 45 43 44 46 45 45 43 41 41 41 41 42 41 41 41 41 40 40 40 40 41 41 43 44 45 47 47 47 48 47 47 47 49 49 48 49 48 47 46 45 44 43 45 49 55 63 68
26 24 21 20 22 24 26 25 24 21 19 23 21 14 18 25 29 34 34 27 24 26 29 29 23 30 49 51 47 49 51 53 47 39 42 44 42 41 41 42 42 44 46 46 46 46 44 43 42 42 43 42 42 42 42 41 41 41 41 42 42 44 45 45 48 48 49 51 49 48 48 48 47 46 46 46 45 45 45 45 43 44 49 53 59 66
26 23 24 26 26 27 25 21 21 18 18 28 28 18 17 25 31 35 34 28 27 31 32 33 25 26 49 58 52 52 52 54 54 49 44 41 38 39 41 42 44 44 46 47 47 47 46 44 43 44 44 45 44 43 42 42 42 43 43 44 44 45 46 46 48 50 51 52 52 51 50 48 46 44 43 44 43 43 45 46 45 44 48 52 56 64
28 26 30 32 28 24 21 19 19 17 19 30 32 23 18 25 32 34 33 30 31 34 32 34 27 24 47 61 53 52 54 53 56 53 43 37 37 40 41 43 44 45 46 46 46 46 45 44 44 45 46 46 46 45 45 45 45 46 46 46 47 47 48 48 50 52 53 52 51 51 51 50 47 46 44 44 43 43 44 48 49 47 45 47 51 61
35 31 33 33 27 23 20 20 20 17 21 32 35 30 23 23 29 33 34 32 33 35 31 32 30 24 38 54 52 56 59 58 59 55 41 35 38 41 41 43 44 45 46 45 45 45 43 44 44 45 46 47 48 48 48 48 48 48 48 47 48 48 48 49 51 53 54 53 52 52 52 51 50 49 48 47 47 47 46 48 52 50 46 44 45 54
36 34 32 30 26 23 21 23 26 19 22 35 37 33 27 22 24 30 34 33 32 32 29 31 33 26 29 44 55 64 65 63 64 57 41 34 37 41 41 44 45 45 46 45 44 44 43 44 44 44 45 47 49 50 49 49 49 49 48 48 49 50 50 51 52 53 54 54 53 52 50 50 50 49 49 49 51 54 53 53 54 51 47 46 45 49
35 38 34 29 26 24 20 25 31 22 21 35 34 26 23 22 23 25 29 31 30 31 29 30 32 32 39 53 63 68 66 65 62 52 41 36 38 41 42 44 45 45 45 45 44 44 44 43 42 43 44 46 48 49 48 49 49 49 50 50 51 53 54 55 56 55 56 56 55 53 50 48 47 48 50 52 52 54 55 55 56 57 52 49 48 48
34 41 36 29 26 23 20 25 31 23 21 28 26 21 22 22 22 21 26 30 28 32 33 28 30 40 55 67 67 65 64 63 59 49 44 43 42 42 44 44 44 44 44 44 43 42 42 41 41 41 43 45 47 48 48 48 49 50 51 52 53 54 54 54 55 55 55 55 53 51 49 46 45 46 48 50 49 48 50 50 53 60 62 55 50 51
30 38 35 31 27 22 21 27 32 30 28 24 21 26 26 24 24 22 27 32 31 36 38 35 46 57 64 70 66 63 64 61 59 56 51 49 46 44 44 43 43 43 43 43 42 41 41 41 41 42 43 45 46 46 47 47 48 50 51 52 52 52 52 51 52 53 52 51 47 45 45 45 45 45 46 49 50 47 48 52 53 57 67 66 56 53
28 34 35 34 31 25 24 29 32 32 30 23 20 26 26 25 29 27 27 32 34 40 41 41 62 76 74 76 73 66 66 63 61 62 59 54 49 46 45 45 44 44 43 43 42 42 43 42 42 42 41 43 44 45 45 46 47 49 50 50 50 49 50 51 53 51 47 43 42 41 42 43 44 45 46 49 53 52 51 58 60 58 66 73 66 58
30 33 35 35 32 29 27 30 35 32 26 24 20 23 27 29 32 31 30 33 35 42 43 42 62 75 70 75 78 70 69 68 62 62 62 55 49 46 45 45 46 46 46 45 45 44 44 43 42 42 41 42 43 44 45 46 46 47 48 47 47 48 49 50 51 50 46 41 40 39 41 43 44 47 50 48 51 58 58 59 63 62 64 69 70 67
32 37 42 39 32 29 27 27 35 35 28 28 25 23 29 30 29 33 35 36 36 41 46 46 57 66 60 65 73 69 68 66 59 58 58 54 49 46 45 46 47 48 48 48 47 46 44 43 43 42 41 41 43 45 46 46 45 45 45 44 46 48 49 49 49 49 48 46 44 43 43 45 46 48 50 48 50 59 62 60 64 70 73 70 70 71
35 40 47 42 33 32 30 25 33 38 29 29 30 25 28 29 28 32 34 36 36 37 44 48 49 54 55 57 61 62 63 61 55 55 55 53 50 47 48 49 49 50 50 49 48 46 44 43 42 41 41 43 45 46 46 45 44 44 44 44 46 49 50 49 47 47 49 49 47 47 46 45 46 48 48 47 52 58 60 62 65 69 73 73 74 74
39 41 46 43 35 35 34 25 28 33 28 29 34 29 28 31 31 32 33 36 36 35 42 45 43 52 61 60 57 59 62 61 57 55 52 51 50 50 51 51 52 52 52 50 48 47 45 43 42 42 43 45 47 46 45 44 44 44 44 46 49 50 51 49 46 47 49 48 47 46 46 44 43 45 46 46 52 59 62 66 69 68 68 72 80 81
42 44 49 46 36 30 29 24 22 26 27 31 33 30 31 33 33 34 37 37 35 35 41 41 44 59 69 71 68 64 63 64 61 55 50 51 53 53 53 53 54 55 53 51 49 48 46 44 43 44 45 47 47 45 45 45 46 46 47 49 49 49 51 51 49 49 49 47 47 47 46 44 40 41 43 44 49 58 66 72 73 73 71 71 77 80
44 46 49 45 37 29 26 23 22 26 31 29 25 27 31 31 33 36 38 39 35 35 36 36 50 68 70 71 76 69 64 66 61 55 54 55 55 55 56 56 56 56 54 52 50 48 47 46 46 46 46 46 46 45 46 47 47 48 49 50 49 49 51 52 50 49 48 47 48 46 44 43 40 39 41 44 47 53 64 74 78 79 78 75 73 72
46 47 47 42 36 32 28 25 24 30 35 27 20 27 31 31 33 34 34 36 36 36 34 35 57 80 75 70 75 71 67 66 60 56 57 57 57 57 58 58 58 58 55 53 51 49 48 49 48 47 46 45 45 46 47 47 47 48 49 50 50 50 52 51 49 48 46 45 46 46 45 43 40 38 40 43 47 49 55 65 76 82 83 81 77 73
46 46 45 43 39 39 40 35 29 31 34 27 21 24 29 32 34 33 33 34 34 36 36 38 61 83 79 73 74 70 69 68 61 57 59 60 61 61 60 61 60 59 56 53 52 50 50 50 49 47 46 45 46 47 48 48 48 49 49 50 51 51 51 51 49 47 44 44 45 45 45 43 39 36 38 41 44 47 50 54 63 72 78 81 80 78
43 42 44 45 40 38 44 43 33 31 33 31 26 21 24 32 34 32 34 37 38 38 35 40 63 81 80 77 76 71 69 68 64 60 60 63 66 65 63 63 62 58 55 54 53 52 51 51 50 49 48 48 48 49 49 49 49 49 50 51 52 52 52 51 49 47 44 44 45 45 44 42 40 38 38 38 40 44 47 49 53 60 68 76 78 77
40 44 50 53 44 34 37 40 37 34 34 34 32 26 25 31 32 30 31 35 39 37 35 43 60 72 76 77 76 73 69 66 66 65 63 64 66 66 64 62 60 57 55 55 53 52 51 51 51 50 50 50 51 51 51 51 51 52 52 53 53 52 51 51 50 48 46 46 46 46 43 42 44 44 41 39 39 40 42 44 48 52 60 69 74 75
44 52 58 61 56 43 38 40 40 38 35 33 34 32 30 31 31 31 30 35 38 36 43 55 57 59 70 75 72 72 70 67 67 68 66 65 65 63 61 59 58 56 55 54 52 51 51 52 52 52 52 53 52 53 53 53 54 55 55 54 53 52 52 52 51 49 48 48 48 47 46 45 46 46 45 42 41 40 39 41 44 48 53 61 66 70
47 57 60 60 59 53 49 47 42 37 34 33 35 36 33 31 33 34 33 39 43 41 51 65 60 53 64 71 70 70 68 67 66 65 65 64 61 59 59 58 57 55 53 53 52 50 50 51 53 55 56 56 56 55 55 55 57 58 58 56 55 54 53 52 52 51 51 51 51 49 48 48 47 47 47 45 45 44 42 42 44 47 50 53 56 58
50 58 59 58 59 58 56 53 48 42 38 36 37 38 37 36 39 44 45 48 52 55 63 69 65 61 64 66 68 69 66 64 64 63 63 64 62 61 60 59 57 55 53 53 52 52 52 53 58 60 60 60 59 59 59 59 60 61 60 59 58 57 55 53 53 54 53 53 54 52 51 49 49 49 48 47 48 48 46 44 44 46 48 49 51 51
56 60 59 57 61 64 59 56 55 53 50 46 43 44 50 52 51 55 61 60 59 66 71 67 63 64 63 59 62 66 65 64 64 64 64 66 65 63 62 60 59 57 55 55 56 57 57 59 63 64 64 64 64 63 63 62 61 62 61 61 61 59 58 56 55 55 55 55 55 54 53 51 50 50 50 49 49 49 48 47 45 45 45 46 47 48
56 62 62 58 62 69 63 56 57 58 57 58 58 59 64 66 62 62 65 64 60 63 65 60 57 59 56 54 59 65 66 65 65 66 66 67 66 65 64 64 63 62 60 60 61 62 62 62 64 66 65 65 64 63 63 62 61 62 61 61 61 60 60 58 57 56 56 56 56 55 55 53 51 52 52 51 51 50 49 47 45 45 44 45 46 46
52 59 62 57 59 68 66 60 60 60 62 69 73 72 69 66 64 60 59 62 61 59 57 54 51 51 51 53 59 66 68 67 67 67 68 68 67 67 67 68 68 68 66 64 64 63 62 61 61 63 61 59 59 59 58 58 58 59 60 60 60 60 60 58 56 55 56 57 56 56 56 54 53 53 53 53 52 51 49 47 46 45 44 43 44 44
53 58 60 56 57 62 63 63 63 57 58 67 71 70 69 67 63 58 56 57 58 54 52 51 49 49 50 52 57 64 68 69 69 69 70 71 70 71 72 72 73 74 70 67 65 63 62 62 62 61 60 58 57 57 57 58 59 59 60 60 59 59 59 58 56 56 58 58 58 57 56 55 54 54 53 54 53 51 49 47 46 46 46 44 43 42
51 56 57 52 53 59 60 62 65 62 63 69 66 63 66 66 59 56 56 54 52 51 50 50 50 50 50 52 56 62 67 70 72 74 74 74 75 76 77 77 77 75 72 69 67 66 65 66 64 63 61 59 58 58 58 60 61 61 61 61 60 60 61 60 59 59 59 59 59 59 58 57 56 55 54 54 54 52 50 47 45 45 45 45 44 43
44 48 52 51 55 61 61 59 64 71 74 73 67 60 61 62 58 57 59 57 52 51 51 51 52 51 52 55 60 67 71 72 75 77 78 78 78 79 80 79 77 76 74 72 70 69 68 67 66 65 64 62 61 61 61 62 63 62 62 61 61 61 61 59 59 59 59 59 59 59 59 57 55 56 56 55 54 52 50 47 46 46 45 46 46 44
42 45 52 59 62 61 60 62 69 74 75 74 71 64 60 63 62 59 62 64 57 52 54 56 55 55 57 60 66 74 77 76 77 79 79 79 79 79 79 78 77 76 75 73 71 70 69 67 67 67 67 66 65 65 66 66 64 62 62 61 60 59 59 58 58 58 58 59 60 59 59 57 56 56 57 55 54 53 51 50 48 47 47 47 47 46
41 43 50 60 63 60 60 66 70 70 70 69 66 62 62 65 63 58 63 69 64 58 60 61 59 59 60 62 70 78 78 77 79 81 81 80 80 80 79 78 77 76 75 73 73 72 71 69 69 69 69 69 69 68 68 67 66 64 62 60 59 58 57 57 57 58 59 60 60 58 57 56 57 58 57 56 55 54 53 52 51 50 50 50 50 49
46 49 50 54 60 61 61 62 63 68 73 71 65 63 64 64 63 62 67 73 71 66 65 63 62 63 63 64 71 76 76 78 81 81 82 83 81 80 79 78 77 77 76 75 74 74 72 72 71 71 72 72 71 70 70 68 67 65 64 62 61 59 57 58 58 60 61 61 60 58 57 57 58 59 58 57 56 55 54 53 53 53 54 54 54 54
56 57 53 50 55 60 59 62 68 74 79 77 71 68 66 63 65 67 68 69 67 64 63 64 64 67 68 70 74 77 77 81 83 82 83 84 81 79 78 78 78 78 78 77 75 73 73 72 72 73 74 74 72 71 71 70 69 68 68 67 65 62 60 59 60 61 62 62 61 59 58 57 57 57 57 57 56 55 54 54 54 56 58 59 59 58
61 60 55 51 53 56 56 63 73 78 78 76 73 71 68 66 66 66 65 64 63 62 63 65 67 70 73 74 75 75 76 80 83 84 85 84 82 80 79 78 77 77 77 75 73 72 72 72 72 73 73 73 72 71 70 70 69 69 69 68 67 65 62 59 59 60 60 61 61 59 57 57 55 52 52 54 55 55 55 55 55 57 59 61 61 60
59 58 55 54 55 56 58 64 72 77 77 73 70 69 67 65 65 64 63 63 64 63 64 65 68 71 72 72 72 74 76 79 81 83 83 81 80 79 79 78 79 79 78 75 72 70 71 72 71 71 70 69 68 66 65 65 66 66 66 66 65 64 62 59 57 57 58 59 59 58 57 56 55 53 51 52 54 55 55 55 56 56 58 60 62 62
58 53 52 57 58 55 58 66 72 74 72 66 64 64 63 63 65 64 61 61 62 62 63 64 67 70 72 73 75 77 78 79 78 79 79 79 78 79 81 82 83 83 81 77 74 74 74 75 74 71 68 66 64 63 62 61 61 61 60 60 61 61 61 59 58 57 56 55 55 55 54 53 52 52 52 52 54 55 54 54 56 56 57 59 62 64
62 56 56 61 60 55 59 70 72 69 66 64 64 63 59 59 62 63 62 62 63 64 65 68 72 74 76 77 78 78 79 80 79 80 80 81 82 84 85 86 85 83 82 80 78 78 78 77 75 71 69 65 63 61 58 56 55 54 52 52 53 55 56 56 56 55 53 52 51 50 49 48 48 48 48 49 52 54 54 55 57 58 58 59 62 65
63 60 61 65 64 61 66 75 73 66 64 65 66 64 60 60 61 62 62 63 64 66 69 72 75 77 78 80 80 81 82 82 81 81 81 83 85 86 86 86 84 83 82 81 81 80 79 76 73 69 65 61 57 54 51 49 47 45 44 43 44 46 49 49 49 50 49 49 49 47 46 46 45 46 46 46 48 50 53 55 57 58 60 61 62 65
57 56 57 62 64 63 66 71 69 65 64 63 64 64 62 61 61 60 61 63 63 65 69 73 77 78 79 81 81 82 82 82 82 83 84 86 88 87 86 85 83 81 80 80 79 77 72 68 63 58 53 49 46 43 40 37 36 34 33 34 35 36 38 39 41 43 44 44 45 45 45 46 46 47 47 47 47 49 52 55 56 57 60 63 65 67
49 49 50 53 56 58 63 65 63 62 62 60 60 62 61 60 59 60 62 63 64 65 69 74 78 80 81 82 82 83 83 82 82 84 87 87 87 85 83 82 82 81 79 75 71 64 57 52 48 43 39 37 34 31 29 28 28 27 28 29 29 30 31 34 36 39 40 42 43 43 44 46 47 49 50 52 51 52 56 59 58 55 56 59 63 67
43 44 47 51 52 54 58 59 56 57 59 58 58 58 58 57 58 60 63 67 68 69 70 72 74 77 78 80 80 80 79 78 80 83 85 85 85 84 83 82 80 74 67 60 53 46 41 37 35 32 31 30 28 27 26 26 26 26 25 25 25 25 26 27 28 30 33 36 38 39 41 42 43 45 48 51 53 54 56 59 59 57 57 58 58 61
42 43 47 52 55 55 55 54 53 54 57 58 56 56 56 57 58 60 63 67 69 70 69 70 71 72 73 74 76 76 76 77 78 80 81 80 81 80 77 71 61 52 45 40 36 34 32 31 31 30 29 28 26 24 23 23 21 21 21 20 19 20 22 23 23 23 24 26 28 30 33 36 37 39 43 47 49 51 52 54 56 57 59 60 59 58
44 46 46 46 50 52 51 50 50 51 54 56 56 55 56 57 58 59 60 62 65 67 67 66 66 66 69 71 74 76 76 76 76 76 74 71 68 63 55 46 38 34 33 33 32 31 30 29 28 27 24 22 20 18 17 17 18 18 18 18 17 18 21 24 27 28 26 24 23 23 25 28 30 33 37 40 44 47 49 51 53 54 56 59 60 59
45 49 47 44 45 47 47 48 49 49 51 54 56 58 59 59 59 58 57 57 59 61 62 62 62 64 68 72 75 77 76 75 74 72 66 59 51 44 38 34 32 32 32 32 30 28 26 24 21 19 18 17 17 16 15 16 16 16 17 18 18 18 18 20 24 30 33 31 26 21 23 26 26 27 31 34 37 42 46 47 49 52 53 55 57 58